Location: Helsinki
(60.1699°N, 24.9384°E)
Time: 22:37:22
(UTC+02:00)

A-11 Canister half - Pass Details

Date: 28 October 2020
Orbit: 1516 x 1684 km, 47.2° (Epoch: 26 November)

Event Time Altitude Azimuth Distance (km) Brightness Sun altitude
Rises 01:06:58 0° 266° (W) 4,896 - -41.6°
Reaches altitude 10° 01:10:31 10° 258° (WSW) 3,888 - -41.5°
Maximum altitude 01:18:58 34° 199° (SSW) 2,436 - -41.0°
Drops below altitude 10° 01:27:10 10° 140° (SE) 3,766 - -40.6°
Sets 01:30:33 0° 132° (SE) 4,726 - -40.4°
